| time (UTC) | temp F | wind direction | speed MPH | gust MPH | rain 1hr in | rain 24hr in | rain mn in | humidity % | barometer mb |
| 20260507101550 | 48 | 0 | 0.0 | 0.0 | 0.00 | 0.00 | 0.00 | 94 | 1011.2 |
| 20260507100057 | 48 | 0 | 0.0 | 0.0 | 0.00 | 0.00 | 0.00 | 93 | 1010.9 |
| 20260507094550 | 48 | 0 | 0.0 | 0.0 | 0.00 | 0.00 | 0.00 | 93 | 1010.8 |
| 20260507093052 | 48 | 0 | 0.0 | 0.0 | 0.00 | 0.00 | 0.00 | 93 | 1010.6 |
| 20260507091554 | 48 | 0 | 0.0 | 0.0 | 0.00 | 0.00 | 0.00 | 92 | 1010.3 |
| 20260507090054 | 48 | 0 | 0.0 | 0.0 | 0.00 | 0.00 | 0.00 | 92 | 1010.3 |
| 20260507084558 | 48 | 0 | 0.0 | 0.0 | 0.00 | 0.00 | 0.00 | 92 | 1010.5 |
| 20260507083054 | 48 | 0 | 0.0 | 0.0 | 0.00 | 0.00 | 0.00 | 92 | 1010.5 |
| 20260507081554 | 48 | 0 | 0.0 | 0.0 | 0.00 | 0.00 | 0.00 | 92 | 1010.5 |
| 20260507080117 | 48 | 0 | 0.0 | 0.0 | 0.00 | 0.00 | 0.00 | 91 | 1010.8 |
| 20260507074558 | 48 | 0 | 0.0 | 0.0 | 0.00 | 0.00 | 0.00 | 91 | 1010.7 |
| 20260507073105 | 48 | 0 | 0.0 | 0.0 | 0.00 | 0.00 | 0.00 | 91 | 1010.8 |
| 20260507071553 | 48 | 0 | 0.0 | 0.0 | 0.00 | 0.00 | 0.00 | 91 | 1011.0 |
| 20260507070056 | 49 | 0 | 0.0 | 0.0 | 0.00 | 0.00 | 0.00 | 91 | 1010.9 |
| 20260507064600 | 49 | 0 | 0.0 | 4.0 | 0.00 | 0.00 | 0.00 | 90 | 1011.3 |
| 20260507063105 | 49 | 0 | 0.0 | 1.0 | 0.00 | 0.00 | 0.00 | 90 | 1011.0 |
| 20260507061558 | 50 | 0 | 0.0 | 4.0 | 0.00 | 0.00 | 0.00 | 90 | 1010.9 |
| 20260507060058 | 50 | 0 | 0.0 | 0.0 | 0.00 | 0.00 | 0.00 | 89 | 1011.0 |
| 20260507054552 | 51 | 0 | 0.0 | 0.0 | 0.00 | 0.00 | 0.00 | 89 | 1010.9 |
| 20260507053053 | 51 | 0 | 0.0 | 0.0 | 0.00 | 0.00 | 0.00 | 88 | 1010.5 |
| 20260507051552 | 52 | 0 | 0.0 | 4.0 | 0.00 | 0.00 | 0.00 | 86 | 1010.5 |
| 20260507050058 | 53 | 0 | 0.0 | 2.0 | 0.00 | 0.00 | 0.00 | 82 | 1009.7 |
| 20260507044556 | 54 | 249 | 0.0 | 8.0 | 0.00 | 0.00 | 0.00 | 79 | 1010.2 |
| 20260507043054 | 55 | 0 | 0.0 | 0.0 | 0.00 | 0.00 | 0.00 | 79 | 1009.9 |
| 20260507041553 | 55 | 0 | 0.0 | 0.0 | 0.00 | 0.00 | 0.00 | 78 | 1009.9 |
| 20260507034557 | 55 | 327 | 0.0 | 8.0 | 0.00 | 0.00 | 0.00 | 77 | 1010.1 |
| 20260507033055 | 56 | 0 | 0.0 | 8.0 | 0.00 | 0.00 | 0.00 | 78 | 1009.8 |
| 20260507031556 | 56 | 360 | 1.0 | 8.0 | 0.00 | 0.00 | 0.00 | 80 | 1009.7 |
| 20260507030055 | 57 | 0 | 0.0 | 6.0 | 0.00 | 0.00 | 0.00 | 82 | 1009.5 |
| 20260507024609 | 58 | 360 | 0.0 | 10.0 | 0.00 | 0.00 | 0.00 | 81 | 1009.4 |
| 20260507023054 | 59 | 53 | 1.0 | 8.0 | 0.00 | 0.00 | 0.00 | 80 | 1009.4 |
| 20260507021556 | 63 | 0 | 0.0 | 9.0 | 0.00 | 0.00 | 0.00 | 83 | 1009.2 |
| 20260507020108 | 63 | 0 | 0.0 | 2.0 | 0.00 | 0.00 | 0.00 | 83 | 1009.0 |
| 20260507014555 | 64 | 0 | 0.0 | 3.0 | 0.00 | 0.00 | 0.00 | 82 | 1009.1 |
| 20260507013056 | 65 | 0 | 0.0 | 3.0 | 0.00 | 0.00 | 0.00 | 82 | 1009.0 |
| 20260507011549 | 65 | 0 | 0.0 | 5.0 | 0.00 | 0.00 | 0.00 | 81 | 1008.6 |
| 20260507004602 | 65 | 0 | 0.0 | 5.0 | 0.00 | 0.00 | 0.00 | 81 | 1008.4 |
| 20260507003053 | 65 | 0 | 0.0 | 4.0 | 0.00 | 0.00 | 0.00 | 80 | 1008.1 |
| 20260507001551 | 65 | 0 | 0.0 | 6.0 | 0.00 | 0.00 | 0.00 | 80 | 1008.0 |
| 20260507000053 | 66 | 200 | 0.0 | 4.0 | 0.00 | 0.00 | 0.00 | 80 | 1008.0 |
| 20260506234552 | 66 | 0 | 0.0 | 5.0 | 0.00 | 0.00 | 0.00 | 78 | 1007.9 |
| 20260506233102 | 66 | 0 | 1.0 | 5.0 | 0.00 | 0.00 | 0.00 | 77 | 1007.8 |
| 20260506231557 | 66 | 213 | 5.0 | 11.0 | 0.00 | 0.00 | 0.00 | 77 | 1007.7 |
| 20260506230056 | 67 | 241 | 0.0 | 11.0 | 0.00 | 0.00 | 0.00 | 76 | 1007.9 |
| 20260506224554 | 67 | 233 | 1.0 | 9.0 | 0.00 | 0.00 | 0.00 | 75 | 1007.8 |
| 20260506223054 | 67 | 229 | 0.0 | 8.0 | 0.00 | 0.00 | 0.00 | 76 | 1007.7 |
| 20260506221553 | 67 | 0 | 1.0 | 10.0 | 0.00 | 0.00 | 0.00 | 77 | 1007.6 |
| 20260506220052 | 66 | 233 | 2.0 | 12.0 | 0.00 | 0.00 | 0.00 | 78 | 1007.7 |
| 20260506214554 | 66 | 0 | 2.0 | 8.0 | 0.00 | 0.00 | 0.00 | 79 | 1007.5 |
| 20260506213112 | 66 | 0 | 3.0 | 8.0 | 0.00 | 0.00 | 0.00 | 80 | 1007.3 |
| 20260506211555 | 65 | 0 | 0.0 | 6.0 | 0.00 | 0.00 | 0.00 | 81 | 1007.3 |
| 20260506210051 | 65 | 213 | 1.0 | 8.0 | 0.00 | 0.00 | 0.00 | 80 | 1007.3 |
| 20260506204556 | 65 | 220 | 1.0 | 14.0 | 0.00 | 0.00 | 0.00 | 80 | 1007.1 |
| 20260506203056 | 64 | 243 | 4.0 | 12.0 | 0.00 | 0.00 | 0.00 | 82 | 1007.1 |
| 20260506201548 | 63 | 224 | 3.0 | 10.0 | 0.00 | 0.00 | 0.00 | 83 | 1007.2 |
| 20260506200055 | 63 | 223 | 3.0 | 11.0 | 0.00 | 0.00 | 0.00 | 84 | 1007.3 |
| 20260506194554 | 63 | 0 | 3.0 | 9.0 | 0.00 | 0.00 | 0.00 | 86 | 1007.3 |
| 20260506193049 | 62 | 194 | 2.0 | 8.0 | 0.00 | 0.00 | 0.00 | 87 | 1007.6 |
| 20260506191553 | 62 | 211 | 5.0 | 15.0 | 0.00 | 0.00 | 0.00 | 88 | 1007.7 |
| 20260506190048 | 61 | 249 | 3.0 | 14.0 | 0.00 | 0.00 | 0.00 | 89 | 1007.7 |
| 20260506184553 | 61 | 246 | 4.0 | 14.0 | 0.00 | 0.00 | 0.00 | 88 | 1007.9 |
| 20260506183056 | 62 | 227 | 2.0 | 14.0 | 0.00 | 0.00 | 0.00 | 87 | 1008.0 |
| 20260506181615 | 61 | 0 | 3.0 | 10.0 | 0.00 | 0.00 | 0.00 | 88 | 1008.0 |
| 20260506180054 | 61 | 161 | 5.0 | 12.0 | 0.00 | 0.00 | 0.00 | 88 | 1008.2 |
| 20260506174556 | 61 | 183 | 2.0 | 15.0 | 0.00 | 0.00 | 0.00 | 89 | 1008.2 |
| 20260506173101 | 61 | 0 | 2.0 | 10.0 | 0.00 | 0.00 | 0.00 | 90 | 1008.2 |
| 20260506171554 | 61 | 181 | 2.0 | 15.0 | 0.00 | 0.00 | 0.00 | 90 | 1008.4 |
| 20260506170055 | 62 | 191 | 4.0 | 16.0 | 0.00 | 0.00 | 0.00 | 91 | 1008.3 |
| 20260506164554 | 62 | 217 | 6.0 | 19.0 | 0.00 | 0.00 | 0.00 | 91 | 1008.5 |
| 20260506163052 | 61 | 167 | 2.0 | 9.0 | 0.00 | 0.00 | 0.00 | 91 | 1008.2 |
| 20260506161553 | 61 | 169 | 3.0 | 12.0 | 0.00 | 0.00 | 0.00 | 90 | 1008.9 |
| 20260506160055 | 61 | 214 | 0.0 | 3.0 | 0.00 | 0.00 | 0.00 | 90 | 1009.6 |
| 20260506154558 | 61 | 0 | 2.0 | 7.0 | 0.00 | 0.00 | 0.00 | 88 | 1009.8 |
| 20260506153112 | 62 | 0 | 2.0 | 10.0 | 0.00 | 0.00 | 0.00 | 86 | 1009.6 |
| 20260506151556 | 63 | 0 | 0.0 | 9.0 | 0.00 | 0.00 | 0.00 | 86 | 1009.7 |
| 20260506144557 | 63 | 0 | 1.0 | 10.0 | 0.00 | 0.00 | 0.00 | 80 | 1009.4 |
| 20260506143059 | 64 | 0 | 0.0 | 9.0 | 0.00 | 0.00 | 0.00 | 76 | 1009.7 |
| 20260506141551 | 66 | 252 | 2.0 | 14.0 | 0.00 | 0.00 | 0.00 | 71 | 1009.7 |
| 20260506134556 | 66 | 213 | 3.0 | 11.0 | 0.00 | 0.00 | 0.00 | 69 | 1009.2 |
| 20260506133056 | 65 | 269 | 1.0 | 12.0 | 0.00 | 0.00 | 0.00 | 71 | 1009.6 |
| 20260506131617 | 65 | 217 | 2.0 | 13.0 | 0.00 | 0.00 | 0.00 | 69 | 1009.6 |
| 20260506130051 | 66 | 0 | 4.0 | 12.0 | 0.00 | 0.00 | 0.00 | 70 | 1009.9 |
| 20260506124551 | 65 | 0 | 2.0 | 14.0 | 0.00 | 0.00 | 0.00 | 69 | 1009.7 |
| 20260506123053 | 65 | 235 | 3.0 | 13.0 | 0.00 | 0.00 | 0.00 | 71 | 1009.8 |
| 20260506121556 | 64 | 198 | 2.0 | 11.0 | 0.00 | 0.00 | 0.00 | 72 | 1009.5 |
| 20260506120051 | 64 | 209 | 3.0 | 9.0 | 0.00 | 0.00 | 0.00 | 72 | 1009.6 |
| 20260506114553 | 64 | 202 | 1.0 | 14.0 | 0.00 | 0.00 | 0.00 | 72 | 1009.5 |
| 20260506113054 | 64 | 0 | 1.0 | 10.0 | 0.00 | 0.00 | 0.00 | 72 | 1009.4 |
| 20260506111558 | 64 | 207 | 4.0 | 11.0 | 0.00 | 0.00 | 0.00 | 72 | 1009.5 |
| 20260506110055 | 64 | 181 | 3.0 | 14.0 | 0.00 | 0.00 | 0.00 | 72 | 1009.2 |
| 20260506104600 | 64 | 196 | 4.0 | 13.0 | 0.00 | 0.00 | 0.00 | 73 | 1009.1 |
| 20260506103057 | 64 | 214 | 5.0 | 15.0 | 0.00 | 0.00 | 0.00 | 73 | 1009.2 |
| 20260506101552 | 64 | 0 | 1.0 | 10.0 | 0.00 | 0.00 | 0.00 | 73 | 1009.1 |
| 20260506100100 | 64 | 210 | 3.0 | 11.0 | 0.00 | 0.00 | 0.00 | 73 | 1009.1 |
| 20260506094552 | 64 | 162 | 2.0 | 9.0 | 0.00 | 0.00 | 0.00 | 73 | 1009.1 |
| 20260506093051 | 64 | 192 | 2.0 | 11.0 | 0.00 | 0.00 | 0.00 | 73 | 1009.0 |
| 20260506091558 | 64 | 207 | 2.0 | 9.0 | 0.00 | 0.00 | 0.00 | 73 | 1009.0 |
| 20260506090100 | 64 | 220 | 2.0 | 9.0 | 0.00 | 0.00 | 0.00 | 72 | 1009.2 |
| 20260506084555 | 65 | 0 | 0.0 | 12.0 | 0.00 | 0.00 | 0.00 | 72 | 1009.3 |
| 20260506083052 | 65 | 213 | 2.0 | 8.0 | 0.00 | 0.00 | 0.00 | 71 | 1009.3 |
| 20260506081554 | 65 | 0 | 2.0 | 12.0 | 0.00 | 0.00 | 0.00 | 70 | 1009.3 |
| 20260506080104 | 65 | 0 | 0.0 | 11.0 | 0.00 | 0.00 | 0.00 | 70 | 1009.3 |
| 20260506073058 | 66 | 206 | 2.0 | 14.0 | 0.00 | 0.00 | 0.00 | 68 | 1009.4 |
| 20260506071606 | 66 | 157 | 3.0 | 12.0 | 0.00 | 0.00 | 0.00 | 67 | 1009.4 |
| 20260506061556 | 67 | 238 | 2.0 | 11.0 | 0.00 | 0.00 | 0.00 | 64 | 1009.9 |
| 20260506044553 | 67 | 208 | 3.0 | 11.0 | 0.00 | 0.00 | 0.00 | 60 | 1010.5 |
| 20260506043054 | 67 | 0 | 3.0 | 13.0 | 0.00 | 0.00 | 0.00 | 60 | 1010.6 |
| 20260506041602 | 67 | 0 | 0.0 | 10.0 | 0.00 | 0.00 | 0.00 | 60 | 1010.6 |
| 20260506040055 | 67 | 213 | 1.0 | 9.0 | 0.00 | 0.00 | 0.00 | 60 | 1010.4 |
| 20260506034613 | 67 | 247 | 0.0 | 10.0 | 0.00 | 0.00 | 0.00 | 59 | 1010.4 |
| 20260506033051 | 68 | 0 | 1.0 | 12.0 | 0.00 | 0.00 | 0.00 | 58 | 1010.3 |
| 20260506031550 | 68 | 214 | 0.0 | 7.0 | 0.00 | 0.00 | 0.00 | 57 | 1010.2 |
| 20260506030050 | 68 | 183 | 1.0 | 10.0 | 0.00 | 0.00 | 0.00 | 56 | 1010.1 |
| 20260506024612 | 69 | 0 | 2.0 | 10.0 | 0.00 | 0.00 | 0.00 | 55 | 1010.4 |
| 20260506023054 | 70 | 0 | 3.0 | 10.0 | 0.00 | 0.00 | 0.00 | 52 | 1010.4 |
| 20260506021553 | 70 | 0 | 0.0 | 8.0 | 0.00 | 0.00 | 0.00 | 49 | 1010.2 |
| 20260506020048 | 72 | 0 | 0.0 | 10.0 | 0.00 | 0.00 | 0.00 | 46 | 1010.2 |
| 20260506014550 | 72 | 0 | 0.0 | 9.0 | 0.00 | 0.00 | 0.00 | 44 | 1010.2 |
| 20260506013103 | 73 | 0 | 0.0 | 12.0 | 0.00 | 0.00 | 0.00 | 43 | 1009.8 |
| 20260506011603 | 73 | 201 | 3.0 | 11.0 | 0.00 | 0.00 | 0.00 | 42 | 1009.7 |
| 20260506010055 | 74 | 182 | 4.0 | 15.0 | 0.00 | 0.00 | 0.00 | 40 | 1009.5 |
| 20260506004551 | 74 | 0 | 3.0 | 14.0 | 0.00 | 0.00 | 0.00 | 40 | 1009.5 |
| 20260506003050 | 74 | 209 | 3.0 | 12.0 | 0.00 | 0.00 | 0.00 | 40 | 1009.2 |
| 20260506001551 | 74 | 189 | 1.0 | 11.0 | 0.00 | 0.00 | 0.00 | 41 | 1009.1 |
| 20260506000052 | 75 | 188 | 1.0 | 10.0 | 0.00 | 0.00 | 0.00 | 41 | 1009.0 |
| 20260505234552 | 76 | 159 | 1.0 | 12.0 | 0.00 | 0.00 | 0.00 | 40 | 1008.8 |
| 20260505233050 | 76 | 0 | 1.0 | 11.0 | 0.00 | 0.00 | 0.00 | 38 | 1008.8 |
| 20260505231549 | 77 | 217 | 3.0 | 15.0 | 0.00 | 0.00 | 0.00 | 34 | 1008.7 |
| 20260505224551 | 78 | 200 | 5.0 | 22.0 | 0.00 | 0.00 | 0.00 | 32 | 1008.5 |
| 20260505223106 | 79 | 154 | 4.0 | 23.0 | 0.00 | 0.00 | 0.00 | 30 | 1008.5 |